This demonstration page uses our WeatherBlox Daily Observations layout. Learn more.

Hourly Observations for March 29, 2019

Temp ( °F °C ) Dew Point ( °F °C ) Humidity (%) Winds ( mph kmh ) Pressure ( in mb ) Visibility ( mi km ) Precip ( " mm )
12:15 am 00:15 Partly Cloudy 55 13 36 2 47 47 S 7 11 30.18 1022 10 16.09344 0 0
12:35 am 00:35 Mostly Cloudy 54 12 36 2 51 51 SSW 6 9 30.18 1022 10 16.09344 0 0
12:55 am 00:55 Partly Cloudy 54 12 37 3 54 54 S 8 13 30.18 1022 10 16.09344 0 0
1:15 am 01:15 Partly Cloudy 54 12 37 3 54 54 S 8 13 30.15 1021 10 16.09344 0 0
1:35 am 01:35 Partly Cloudy 52 11 37 3 58 58 SSW 7 11 30.15 1021 10 16.09344 0 0
1:55 am 01:55 Mostly Cloudy 54 12 37 3 54 54 SSW 6 9 30.15 1021 10 16.09344 0 0
2:15 am 02:15 Partly Cloudy 52 11 37 3 58 58 SSW 6 9 30.15 1021 10 16.09344 0 0
2:35 am 02:35 Mostly Cloudy 52 11 37 3 58 58 SSW 6 9 30.15 1021 10 16.09344 0 0
2:55 am 02:55 Cloudy 52 11 37 3 58 58 S 6 9 30.15 1021 10 16.09344 0 0
3:15 am 03:15 Partly Cloudy 52 11 37 3 58 58 S 6 9 30.15 1021 10 16.09344 0 0
3:35 am 03:35 Partly Cloudy 50 10 39 4 67 67 S 6 9 30.15 1021 10 16.09344 0 0
3:55 am 03:55 Clear 50 10 39 4 67 67 S 3 6 30.15 1021 10 16.09344 0 0
4:15 am 04:15 Clear 50 10 37 3 62 62 Calm 30.15 1021 10 16.09344 0 0
4:35 am 04:35 Partly Cloudy 46 8 37 3 71 71 Calm 30.15 1021 10 16.09344 0 0
4:55 am 04:55 Mostly Cloudy 46 8 39 4 76 76 Calm 30.15 1021 10 16.09344 0 0
5:15 am 05:15 Partly Cloudy 45 7 39 4 81 81 Calm 30.15 1021 10 16.09344 0 0
5:35 am 05:35 Clear 45 7 39 4 81 81 Calm 30.15 1021 10 16.09344 0 0
5:55 am 05:55 Clear 45 7 39 4 81 81 Calm 30.15 1021 10 16.09344 0 0
6:15 am 06:15 Clear 45 7 39 4 81 81 Calm 30.15 1021 10 16.09344 0 0
6:35 am 06:35 Clear 45 7 39 4 81 81 Calm 30.15 1021 10 16.09344 0 0
6:55 am 06:55 Clear 43 6 37 3 81 81 Calm 30.15 1021 10 16.09344 0 0
7:15 am 07:15 Partly Cloudy 43 6 37 3 81 81 Calm 30.15 1021 10 16.09344 0 0
7:35 am 07:35 Cloudy 45 7 41 5 87 87 NNW 3 6 30.15 1021 10 16.09344 0 0
7:55 am 07:55 Cloudy 46 8 41 5 82 82 Calm 30.15 1021 10 16.09344 0 0
8:15 am 08:15 Mostly Cloudy 48 9 41 5 76 76 Calm 30.15 1021 10 16.09344 0 0
8:35 am 08:35 Sunny 50 10 41 5 71 71 Calm 30.15 1021 10 16.09344 0 0
8:55 am 08:55 Mostly Cloudy 52 11 41 5 67 67 Calm 30.12 1020 10 16.09344 0 0
9:15 am 09:15 Cloudy 54 12 41 5 63 63 S 3 6 30.12 1020 10 16.09344 0 0
9:35 am 09:35 Cloudy 54 12 43 6 67 67 Calm 30.12 1020 10 16.09344 0 0
9:55 am 09:55 Cloudy 54 12 41 5 63 63 Calm 30.12 1020 10 16.09344 0 0
10:15 am 10:15 Cloudy 54 12 41 5 63 63 Calm 30.12 1020 10 16.09344 0 0
10:35 am 10:35 Cloudy 55 13 43 6 63 63 Calm 30.15 1021 10 16.09344 0 0
10:55 am 10:55 Cloudy 55 13 43 6 63 63 Calm 30.15 1021 10 16.09344 0 0
11:15 am 11:15 Cloudy 55 13 43 6 63 63 Calm 30.15 1021 10 16.09344 0 0
11:35 am 11:35 Cloudy 57 14 45 7 63 63 Calm 30.15 1021 10 16.09344 0 0
11:55 am 11:55 Cloudy 59 15 45 7 59 59 NE 3 6 30.15 1021 10 16.09344 0 0
12:15 pm 12:15 Cloudy 61 16 43 6 52 52 NE 3 6 30.15 1021 10 16.09344 0 0
12:35 pm 12:35 Cloudy 61 16 45 7 55 55 ENE 3 6 30.15 1021 10 16.09344 0 0
12:55 pm 12:55 Cloudy 61 16 45 7 55 55 NE 3 6 30.15 1021 10 16.09344 0 0
1:15 pm 13:15 Cloudy 63 17 46 8 56 56 NE 5 7 30.12 1020 10 16.09344 0 0
1:35 pm 13:35 Cloudy 63 17 46 8 56 56 NE 3 6 30.12 1020 10 16.09344 0 0
1:55 pm 13:55 Cloudy 63 17 46 8 56 56 SE 5 7 30.12 1020 10 16.09344 0 0
2:15 pm 14:15 Cloudy 63 17 46 8 56 56 NE 5 7 30.09 1019 10 16.09344 0 0
2:35 pm 14:35 Mostly Cloudy 64 18 46 8 52 52 Calm 30.12 1020 10 16.09344 0 0
2:55 pm 14:55 Mostly Cloudy 64 18 48 9 56 56 Calm 30.09 1019 10 16.09344 0 0
3:15 pm 15:15 Mostly Cloudy 64 18 48 9 56 56 Calm 30.09 1019 10 16.09344 0 0
3:35 pm 15:35 Mostly Cloudy 68 20 50 10 53 53 Calm 30.09 1019 10 16.09344 0 0
3:55 pm 15:55 Partly Cloudy 68 20 48 9 49 49 Calm 30.09 1019 10 16.09344 0 0
4:15 pm 16:15 Sunny 68 20 46 8 46 46 ESE 3 6 30.09 1019 10 16.09344 0 0
4:35 pm 16:35 Partly Cloudy 68 20 46 8 46 46 Calm 30.09 1019 10 16.09344 0 0
4:55 pm 16:55 Mostly Cloudy 68 20 46 8 46 46 ESE 5 7 30.09 1019 10 16.09344 0 0
5:15 pm 17:15 Cloudy 68 20 46 8 46 46 SE 6 9 30.09 1019 10 16.09344 0 0
5:35 pm 17:35 Cloudy 68 20 46 8 46 46 SE 3 6 30.09 1019 10 16.09344 0 0
5:55 pm 17:55 Cloudy 66 19 46 8 49 49 SE 5 7 30.09 1019 10 16.09344 0 0
6:15 pm 18:15 Cloudy 66 19 46 8 49 49 SE 3 6 30.09 1019 10 16.09344 0 0
6:35 pm 18:35 Cloudy 66 19 46 8 49 49 ESE 3 6 30.09 1019 10 16.09344 0 0
6:55 pm 18:55 Cloudy 64 18 46 8 52 52 ESE 3 6 30.09 1019 10 16.09344 0 0
7:15 pm 19:15 Cloudy 64 18 46 8 52 52 ESE 5 7 30.09 1019 10 16.09344 0 0
7:35 pm 19:35 Cloudy 64 18 46 8 52 52 ESE 3 6 30.09 1019 10 16.09344 0 0
7:55 pm 19:55 Cloudy 64 18 46 8 52 52 Calm 30.09 1019 10 16.09344 0 0
8:15 pm 20:15 Cloudy 63 17 46 8 56 56 Calm 30.09 1019 10 16.09344 0 0
8:35 pm 20:35 Cloudy 63 17 45 7 52 52 ESE 5 7 30.09 1019 10 16.09344 0 0
8:55 pm 20:55 Cloudy 63 17 46 8 56 56 SE 5 7 30.09 1019 10 16.09344 0 0
9:15 pm 21:15 Cloudy 63 17 46 8 56 56 SE 5 7 30.09 1019 10 16.09344 0 0
9:35 pm 21:35 Cloudy 61 16 46 8 59 59 SE 5 7 30.09 1019 10 16.09344 0 0
9:55 pm 21:55 Cloudy 63 17 46 8 56 56 SE 6 9 30.09 1019 10 16.09344 0 0
10:15 pm 22:15 Cloudy 61 16 45 7 55 55 SE 3 6 30.09 1019 10 16.09344 0 0
10:35 pm 22:35 Cloudy 61 16 45 7 55 55 Calm 30.09 1019 10 16.09344 0 0
10:55 pm 22:55 Mostly Cloudy 57 14 45 7 63 63 Calm 30.09 1019 10 16.09344 0 0
11:15 pm 23:15 Partly Cloudy 55 13 45 7 67 67 Calm 30.09 1019 10 16.09344 0 0
11:35 pm 23:35 Partly Cloudy 55 13 46 8 72 72 Calm 30.09 1019 10 16.09344 0 0
11:55 pm 23:55 Clear 52 11 46 8 82 82 Calm 30.09 1019 10 16.09344 0 0

Powered by AerisWeather